Tracking 35331 objects as of 16-Sep-2026
HD Live streaming from Space Station
objects crossing your sky now

STARLINK-2205


STARLINK-2205 is no longer on orbit
STARLINK-2205 is classified as:


NORAD ID: 47419
Int'l Code: 2021-006G
Launch date: January 24, 2021
Source: United States (US)
Launch site: AIR FORCE EASTERN TEST RANGE (AFETR)
Decay date: 2021-12-30
Your satellite tracking list
Your tracking list is empty




NASA's NSSDC Master Catalog

Two Line Element Set (TLE):
1 47419U 21006G   21364.68362624  .43840116  24307-5  36667-2 0  9995
2 47419  97.4517  68.7564 0006396 282.7875  79.0525 16.39718730 52133
Source of the keplerian elements: AFSPC